Weather observations for the past three days for
Natchez, Hardy-Anders Field Natchez-Adams County Airport
| Date | Time (cdt) | Wind (mph) | Vis. (mi.) | Weather | Sky Cond. | Temperature (ºF) | Relative Humidity | Wind Chill (°F) | Heat Index (°F) | Pressure | Precipitation (in) | ||||||
|---|---|---|---|---|---|---|---|---|---|---|---|---|---|---|---|---|---|
| Air | Dwpt | 6 hour | altimeter (in) | sea level (mb) | 1 hr | 3 hr | 6 hr | ||||||||||
| Max. | Min. | ||||||||||||||||
| 06 | 03:56 | S 8 | 10.00 | Overcast | FEW017 BKN035 OVC043 | 0 | 0 | 0% | 29.86 | 0.0 | |||||||
| 06 | 02:56 | S 8 | 10.00 | Overcast | BKN026 OVC032 | 0 | 0 | 0% | 29.85 | 0.0 | |||||||
| 06 | 01:56 | S 10 G 16 | 10.00 | Mostly Cloudy | BKN014 BKN022 | 0 | 0 | 0% | 29.85 | 0.0 | |||||||
| 06 | 00:56 | S 10 | 10.00 | Mostly Cloudy | BKN016 BKN034 | 0 | 0 | 0% | 29.86 | 0.0 | |||||||
| 05 | 23:56 | S 12 G 17 | 10.00 | Overcast | OVC050 | 0 | 0 | 0% | 29.85 | 0.0 | |||||||
| 05 | 22:56 | S 10 | 10.00 | Overcast | OVC050 | 0 | 0 | 0% | 29.85 | 0.0 | |||||||
| 05 | 21:56 | S 9 | 10.00 | Fair | CLR | 0 | 0 | 0% | 29.84 | 0.0 | |||||||
| 05 | 20:56 | S 12 | 9.00 | Fair | CLR | 0 | 0 | 0% | 29.82 | 0.0 | |||||||
| 05 | 19:56 | S 9 | 10.00 | Overcast | OVC033 | 0 | 0 | 0% | 29.82 | 0.0 | |||||||
| 05 | 18:56 | S 9 | 10.00 | Overcast | BKN030 OVC040 | 0 | 0 | 0% | 29.81 | 0.0 | |||||||
| 05 | 17:56 | S 9 | 10.00 | Overcast | OVC032 | 0 | 0 | 0% | 29.81 | 0.0 | |||||||
| 05 | 16:56 | S 9 | 10.00 | Overcast | BKN030 OVC035 | 0 | 0 | 0% | 29.82 | 0.0 | |||||||
| 05 | 15:56 | S 12 | 10.00 | Overcast | OVC034 | 0 | 0 | 0% | 29.83 | 0.0 | |||||||
| 05 | 14:56 | S 10 | 10.00 | Overcast | OVC034 | 0 | 0 | 0% | 29.84 | 0.0 | |||||||
| 05 | 13:56 | S 9 G 20 | 10.00 | Overcast | BKN038 OVC045 | 0 | 0 | 0% | 29.86 | 0.0 | |||||||
| 05 | 12:56 | S 13 G 20 | 10.00 | Overcast | OVC033 | 0 | 0 | 0% | 29.87 | 0.0 | |||||||
| 05 | 11:56 | S 18 | 10.00 | Mostly Cloudy | BKN031 | 0 | 0 | 0% | 29.87 | 0.0 | |||||||
| 05 | 10:56 | S 14 G 23 | 10.00 | Overcast | SCT027 BKN038 OVC046 | 0 | 0 | 0% | 29.88 | 0.0 | |||||||
| 05 | 09:56 | S 10 | 10.00 | Overcast | OVC036 | 0 | 0 | 0% | 29.88 | 0.0 | |||||||
| 05 | 08:56 | S 12 | 10.00 | Overcast | OVC038 | 0 | 0 | 0% | 29.89 | 0.0 | |||||||
| 05 | 07:56 | S 9 | 10.00 | Overcast | OVC044 | 0 | 0 | 0% | 29.89 | 0.0 | |||||||
| 05 | 06:56 | S 7 | 10.00 | Overcast | SCT027 OVC044 | 0 | 0 | 0% | 29.88 | 0.0 | |||||||
| 05 | 05:56 | S 8 | 10.00 | Fair | CLR | 0 | 0 | 0% | 29.87 | 0.0 | |||||||
| 05 | 04:56 | SE 8 | 10.00 | Fair | CLR | 0 | 0 | 0% | 29.88 | 0.0 | |||||||
| 05 | 03:56 | S 6 | 10.00 | Fair | CLR | 0 | 0 | 0% | 29.88 | 0.0 | |||||||
| 05 | 02:56 | S 7 | 10.00 | Fair | CLR | 0 | 0 | 0% | 29.88 | 0.0 | |||||||
| 05 | 01:56 | S 6 | 10.00 | Fair | CLR | 0 | 0 | 0% | 29.9 | 0.0 | |||||||
| 05 | 00:56 | S 7 | 10.00 | Fair | CLR | 0 | 0 | 0% | 29.92 | 0.0 | |||||||
| 04 | 23:56 | S 7 | 10.00 | Fair | CLR | 0 | 0 | 0% | 29.92 | 0.0 | |||||||
| 04 | 22:56 | S 7 | 10.00 | Fair | CLR | 0 | 0 | 0% | 29.92 | 0.0 | |||||||
| 04 | 21:56 | S 7 | 10.00 | Fair | CLR | 0 | 0 | 0% | 29.91 | 0.0 | |||||||
| 04 | 20:56 | S 6 | 10.00 | Fair | CLR | 0 | 0 | 0% | 29.9 | 0.0 | |||||||
| 04 | 19:56 | S 5 | 10.00 | Fair | CLR | 0 | 0 | 0% | 29.89 | 0.0 | |||||||
| 04 | 18:56 | S 7 | 10.00 | Fair | CLR | 0 | 0 | 0% | 29.9 | 0.0 | |||||||
| 04 | 17:56 | S 9 G 17 | 10.00 | Fair | CLR | 0 | 0 | 0% | 29.92 | 0.0 | |||||||
| 04 | 16:56 | S 10 G 17 | 10.00 | Fair | CLR | 0 | 0 | 0% | 29.94 | 0.0 | |||||||
| 04 | 15:56 | S 14 G 21 | 10.00 | Fair | CLR | 0 | 0 | 0% | 29.95 | 0.0 | |||||||
| 04 | 14:56 | SW 13 G 16 | 10.00 | Fair | CLR | 0 | 0 | 0% | 29.98 | 0.0 | |||||||
| 04 | 13:56 | S 12 G 17 | 10.00 | A Few Clouds | FEW060 | 0 | 0 | 0% | 30 | 0.0 | |||||||
| 04 | 12:56 | SW 9 | 10.00 | A Few Clouds | FEW055 | 0 | 0 | 0% | 30.02 | 0.0 | |||||||
| 04 | 11:56 | S 7 | 10.00 | A Few Clouds | FEW050 | 0 | 0 | 0% | 30.04 | 0.0 | |||||||
| 04 | 10:56 | SW 12 G 18 | 10.00 | Fair | CLR | 0 | 0 | 0% | 30.05 | 0.0 | |||||||
| 04 | 09:56 | S 9 | 10.00 | Fair | CLR | 0 | 0 | 0% | 30.06 | 0.0 | |||||||
| 04 | 08:56 | SW 7 | 10.00 | Fair | CLR | 0 | 0 | 0% | 30.06 | 0.0 | |||||||
| 04 | 07:56 | S 5 | 10.00 | Fair | CLR | 0 | 0 | 0% | 30.06 | 0.0 | |||||||
| 04 | 06:56 | S 5 | 10.00 | Fair | CLR | 0 | 0 | 0% | 30.05 | 0.0 | |||||||
| 04 | 05:56 | Calm | 10.00 | Fair | CLR | 0 | 0 | 0% | 30.04 | 0.0 | |||||||
| 04 | 04:56 | SE 3 | 10.00 | Fair | CLR | 0 | 0 | 0% | 30.04 | 0.0 | |||||||
| 04 | 03:56 | S 3 | 10.00 | Fair | CLR | 0 | 0 | 0% | 30.04 | 0.0 | |||||||
| 04 | 02:56 | Calm | 10.00 | Fair | CLR | 0 | 0 | 0% | 30.05 | 0.0 | |||||||
| 04 | 00:56 | Calm | 10.00 | Fair | CLR | 0 | 0 | 0% | 30.07 | 0.0 | |||||||
| 03 | 23:56 | S 5 | 10.00 | Fair | CLR | 0 | 0 | 0% | 30.08 | 0.0 | |||||||
| 03 | 22:56 | Calm | 10.00 | Fair | CLR | 0 | 0 | 0% | 30.09 | 0.0 | |||||||
| 03 | 21:56 | Calm | 10.00 | Fair | CLR | 0 | 0 | 0% | 30.09 | 0.0 | |||||||
| 03 | 20:56 | S 3 | 10.00 | Fair | CLR | 0 | 0 | 0% | 30.07 | 0.0 | |||||||
| 03 | 19:56 | Calm | 10.00 | Fair | CLR | 0 | 0 | 0% | 30.05 | 0.0 | |||||||
| 03 | 18:56 | Calm | 10.00 | Fair | CLR | 0 | 0 | 0% | 30.06 | 0.0 | |||||||
| 03 | 17:56 | Calm | 10.00 | Fair | CLR | 0 | 0 | 0% | 30.07 | 0.0 | |||||||
| 03 | 16:56 | Vrbl 3 | 10.00 | A Few Clouds | FEW065 | 0 | 0 | 0% | 30.08 | 0.0 | |||||||
| 03 | 15:56 | Vrbl 5 | 10.00 | Fair | CLR | 0 | 0 | 0% | 30.11 | 0.0 | |||||||
| 03 | 14:56 | W 7 | 10.00 | Fair | CLR | 0 | 0 | 0% | 30.14 | 0.0 | |||||||
| 03 | 12:56 | SW 7 | 10.00 | Fair | CLR | 0 | 0 | 0% | 30.18 | 0.0 | |||||||
| 03 | 11:56 | W 8 | 10.00 | Fair | CLR | 0 | 0 | 0% | 30.2 | 0.0 | |||||||
| 03 | 10:56 | W 9 | 10.00 | Fair | CLR | 0 | 0 | 0% | 30.22 | 0.0 | |||||||
| 03 | 09:56 | S 6 | 10.00 | Fair | CLR | 0 | 0 | 0% | 30.22 | 0.0 | |||||||
| 03 | 08:56 | SW 5 | 10.00 | Fair | CLR | 0 | 0 | 0% | 30.21 | 0.0 | |||||||
| 03 | 07:56 | Calm | 10.00 | Fair | CLR | 0 | 0 | 0% | 30.2 | 0.0 | |||||||
| 03 | 06:56 | Calm | 10.00 | Fair | CLR | 0 | 0 | 0% | 30.17 | 0.0 | |||||||
| 03 | 05:56 | Calm | 10.00 | Fair | CLR | 0 | 0 | 0% | 30.16 | 0.0 | |||||||
| 03 | 04:56 | SE 5 | 10.00 | Fair | CLR | 0 | 0 | 0% | 30.15 | 0.0 | |||||||
| Date | Time (cdt) | Wind (mph) | Vis. (mi.) | Weather | Sky Cond. | Air | Dwpt | Max. | Min. | Relative Humidity | Wind Chill (°F) | Heat Index (°F) | altimeter (in) | sea level (mb) | 1 hr | 3 hr | 6 hr |
| 6 hour | |||||||||||||||||
| Temperature (ºF) | Pressure | Precipitation (in) | |||||||||||||||